Location: Stara Lesna
(49.1528°N, 20.2911°E)
Time: 07:16:13
(UTC+02:00)

Cosmos 1400 Rocket - Pass Details

Date: 21 September 2019
Orbit: 522 x 568 km, 81.2° (Epoch: 20 October)

Event Time Altitude Azimuth Distance (km) Brightness Sun altitude
Exits shadow 05:07:01 21° 266° (W) 1,223 4.0 -13.1°
Maximum altitude 05:08:07 24° 292° (WNW) 1,126 4.0 -12.9°
Drops below altitude 10° 05:11:20 10° 347° (NNW) 1,774 5.5 -12.4°
Sets 05:13:48 0° 2° (N) 2,667 6.6 -12.0°
